EW9138 Weather Reports


Display with metric or nautical units.
time (UTC)temp
F
wind
direction
speed
MPH
gust
MPH
rain 1hr
in
rain 24hr
in
rain mn
in
humidity
%
barometer
mb
20260831224802 70 0 0.0 3.0 0.00 0.00 0.00 78 1017.7
20260831224303 70 0 0.0 2.0 0.00 0.00 0.00 78 1017.5
20260831222802 70 0 1.0 2.0 0.00 0.00 0.00 77 1017.4
20260831222306 71 0 1.0 2.0 0.00 0.00 0.00 76 1017.4
20260831221802 71 358 1.0 3.0 0.00 0.00 0.00 76 1017.4
20260831220905 72 322 2.0 3.0 0.00 0.00 0.00 74 1017.3
20260831220304 72 333 2.0 5.0 0.00 0.00 0.00 73 1017.3
20260831215803 72 342 2.0 5.0 0.00 0.00 0.00 72 1017.2
20260831215306 72 7 2.0 5.0 0.00 0.00 0.00 73 1017.2
20260831214802 72 9 2.0 6.0 0.00 0.00 0.00 73 1017.2
20260831214302 72 1 2.0 6.0 0.00 0.00 0.00 73 1017.2
20260831213303 71 3 2.0 5.0 0.00 0.00 0.00 73 1017.2
20260831212802 72 357 2.0 6.0 0.00 0.00 0.00 74 1017.2
20260831212306 72 357 1.0 6.0 0.00 0.00 0.00 74 1017.2
20260831211303 72 12 0.0 3.0 0.00 0.00 0.00 72 1017.0
20260831210802 72 37 1.0 2.0 0.00 0.00 0.00 74 1017.0
20260831210303 72 37 1.0 2.0 0.00 0.00 0.00 72 1017.0
20260831205803 73 35 1.0 2.0 0.00 0.00 0.00 71 1016.8
20260831205305 73 41 0.0 2.0 0.00 0.00 0.00 70 1016.8
20260831204303 73 10 1.0 2.0 0.00 0.00 0.00 71 1016.5
20260831203803 74 10 2.0 5.0 0.00 0.00 0.00 69 1016.5
20260831203302 74 10 2.0 5.0 0.00 0.00 0.00 70 1016.5
20260831202306 74 347 2.0 6.0 0.00 0.00 0.00 69 1016.1
20260831201803 74 254 2.0 6.0 0.00 0.00 0.00 68 1016.1
20260831201303 74 19 1.0 5.0 0.00 0.00 0.00 67 1016.3
20260831200802 74 0 2.0 5.0 0.00 0.00 0.00 67 1016.3
20260831200303 74 6 2.0 6.0 0.00 0.00 0.00 68 1016.3
20260831195306 75 329 3.0 6.0 0.00 0.00 0.00 67 1016.0
20260831194802 75 358 3.0 6.0 0.00 0.00 0.00 65 1016.0
20260831194303 75 2 2.0 6.0 0.00 0.00 0.00 65 1015.8
20260831193803 75 1 2.0 6.0 0.00 0.00 0.00 65 1015.8
20260831193302 75 18 2.0 5.0 0.00 0.00 0.00 65 1015.8
20260831192305 76 24 2.0 5.0 0.00 0.00 0.00 65 1015.7
20260831191803 75 20 2.0 7.0 0.00 0.00 0.00 65 1015.7
20260831191303 75 355 2.0 7.0 0.00 0.00 0.00 65 1015.6
20260831190803 75 347 2.0 6.0 0.00 0.00 0.00 65 1015.6
20260831185802 76 23 2.0 3.0 0.00 0.00 0.00 67 1015.3
20260831184303 76 237 2.0 7.0 0.00 0.00 0.00 66 1015.0
20260831183803 77 17 3.0 7.0 0.00 0.00 0.00 66 1015.0
20260831183303 77 340 3.0 7.0 0.00 0.00 0.00 62 1015.0
20260831182803 77 3 3.0 7.0 0.00 0.00 0.00 62 1014.8
20260831182305 77 8 3.0 6.0 0.00 0.00 0.00 62 1014.8
20260831181804 77 12 3.0 6.0 0.00 0.00 0.00 62 1014.8
20260831180803 78 357 3.0 7.0 0.00 0.00 0.00 61 1015.0
20260831175803 78 354 3.0 6.0 0.00 0.00 0.00 60 1014.9
20260831175306 79 3 3.0 6.0 0.00 0.00 0.00 60 1014.9
20260831174804 79 28 3.0 6.0 0.00 0.00 0.00 60 1014.9
20260831174303 80 358 3.0 5.0 0.00 0.00 0.00 59 1014.7
20260831173804 80 3 3.0 7.0 0.00 0.00 0.00 59 1014.7
20260831173304 80 1 2.0 7.0 0.00 0.00 0.00 58 1014.7
20260831172804 81 358 3.0 5.0 0.00 0.00 0.00 58 1014.9
20260831172306 81 40 3.0 6.0 0.00 0.00 0.00 58 1014.9
20260831170803 83 0 2.0 5.0 0.00 0.00 0.00 55 1015.1
20260831170303 84 358 1.0 5.0 0.00 0.00 0.00 53 1015.1
20260831165305 86 349 2.0 3.0 0.00 0.00 0.00 51 1015.0
20260831164803 86 349 2.0 3.0 0.00 0.00 0.00 50 1015.0
20260831164303 87 167 1.0 3.0 0.00 0.00 0.00 50 1015.1
20260831163804 87 170 1.0 2.0 0.00 0.00 0.00 48 1015.1
20260831163303 87 169 1.0 2.0 0.00 0.00 0.00 51 1015.1
20260831162804 87 169 2.0 2.0 0.00 0.00 0.00 50 1015.1
20260831162306 87 171 2.0 5.0 0.00 0.00 0.00 52 1015.1
20260831161804 87 171 2.0 5.0 0.00 0.00 0.00 51 1015.1
20260831161304 88 174 1.0 5.0 0.00 0.00 0.00 48 1015.1
20260831160303 87 173 2.0 7.0 0.00 0.00 0.00 50 1015.1
20260831155306 88 148 2.0 7.0 0.00 0.00 0.00 50 1015.1
20260831154803 87 6 2.0 5.0 0.00 0.00 0.00 49 1015.1
20260831154303 87 6 2.0 5.0 0.00 0.00 0.00 48 1015.3
20260831153305 87 196 2.0 6.0 0.00 0.00 0.00 48 1015.3
20260831152804 87 71 2.0 5.0 0.00 0.00 0.00 49 1015.3
20260831152306 86 284 2.0 5.0 0.00 0.00 0.00 50 1015.3
20260831151803 85 72 2.0 5.0 0.00 0.00 0.00 52 1015.3
20260831151304 85 19 2.0 3.0 0.00 0.00 0.00 54 1015.3
20260831150804 85 3 2.0 5.0 0.00 0.00 0.00 54 1015.3
20260831150304 85 78 2.0 5.0 0.00 0.00 0.00 53 1015.3
20260831145803 86 30 2.0 7.0 0.00 0.00 0.00 50 1015.5
20260831144804 87 164 2.0 6.0 0.00 0.00 0.00 48 1015.5
20260831144304 87 284 2.0 5.0 0.00 0.00 0.00 47 1015.4
20260831143804 87 200 2.0 5.0 0.00 0.00 0.00 47 1015.4
20260831143303 88 14 2.0 5.0 0.00 0.00 0.00 48 1015.4
20260831142804 88 77 3.0 5.0 0.00 0.00 0.00 45 1015.4
20260831142306 88 192 3.0 7.0 0.00 0.00 0.00 46 1015.4
20260831141804 88 187 3.0 8.0 0.00 0.00 0.00 46 1015.4
20260831141303 88 210 2.0 8.0 0.00 0.00 0.00 45 1015.5
20260831140804 88 114 2.0 8.0 0.00 0.00 0.00 45 1015.5
20260831140305 88 3 2.0 7.0 0.00 0.00 0.00 45 1015.5
20260831135804 88 170 2.0 7.0 0.00 0.00 0.00 45 1015.4
20260831135306 88 271 2.0 7.0 0.00 0.00 0.00 44 1015.4
20260831134803 88 153 2.0 7.0 0.00 0.00 0.00 44 1015.4
20260831134305 87 188 2.0 7.0 0.00 0.00 0.00 47 1015.6
20260831133804 87 186 2.0 8.0 0.00 0.00 0.00 45 1015.6
20260831133303 87 350 2.0 8.0 0.00 0.00 0.00 45 1015.6
20260831132306 87 90 3.0 5.0 0.00 0.00 0.00 47 1015.7
20260831131804 87 327 3.0 8.0 0.00 0.00 0.00 46 1015.7
20260831131304 87 349 2.0 8.0 0.00 0.00 0.00 46 1015.7
20260831130803 87 345 2.0 7.0 0.00 0.00 0.00 46 1015.7
20260831130303 87 260 2.0 7.0 0.00 0.00 0.00 46 1015.7
20260831125803 87 4 2.0 7.0 0.00 0.00 0.00 46 1015.9
20260831125306 87 17 2.0 6.0 0.00 0.00 0.00 45 1015.9
20260831124804 87 184 2.0 6.0 0.00 0.00 0.00 46 1015.9
20260831123803 87 188 2.0 7.0 0.00 0.00 0.00 46 1016.0
20260831123303 87 6 2.0 7.0 0.00 0.00 0.00 46 1016.0
20260831122804 87 193 2.0 6.0 0.00 0.00 0.00 47 1016.0
20260831121803 86 195 2.0 7.0 0.00 0.00 0.00 49 1016.0
20260831121304 86 232 2.0 7.0 0.00 0.00 0.00 48 1016.1
20260831120803 85 178 2.0 5.0 0.00 0.00 0.00 50 1016.1
20260831120304 85 169 2.0 5.0 0.00 0.00 0.00 52 1016.1
20260831115804 84 194 2.0 5.0 0.00 0.00 0.00 51 1016.2
20260831115306 83 195 2.0 5.0 0.00 0.00 0.00 51 1016.2
20260831114804 83 195 2.0 5.0 0.00 0.00 0.00 53 1016.2
20260831114303 83 191 2.0 5.0 0.00 0.00 0.00 51 1016.4
20260831113803 82 191 2.0 5.0 0.00 0.00 0.00 51 1016.4
20260831113303 82 173 2.0 5.0 0.00 0.00 0.00 54 1016.4
20260831112803 82 166 2.0 5.0 0.00 0.00 0.00 53 1016.6
20260831112307 81 172 2.0 5.0 0.00 0.00 0.00 54 1016.6
20260831110804 80 245 2.0 5.0 0.00 0.00 0.00 55 1016.6
20260831110303 80 194 2.0 5.0 0.00 0.00 0.00 55 1016.6
20260831105804 80 193 2.0 3.0 0.00 0.00 0.00 56 1016.8
20260831105306 80 193 2.0 3.0 0.00 0.00 0.00 57 1016.8
20260831104803 79 193 2.0 3.0 0.00 0.00 0.00 59 1016.8
20260831104304 79 193 2.0 5.0 0.00 0.00 0.00 59 1016.8
20260831103304 78 193 2.0 5.0 0.00 0.00 0.00 59 1016.8
20260831102804 78 193 3.0 5.0 0.00 0.00 0.00 60 1016.9
20260831102306 78 191 3.0 6.0 0.00 0.00 0.00 61 1016.9
20260831101804 77 190 3.0 6.0 0.00 0.00 0.00 61 1016.9
20260831101304 77 196 3.0 6.0 0.00 0.00 0.00 62 1017.1
20260831100804 77 192 3.0 6.0 0.00 0.00 0.00 63 1017.1
20260831100304 76 189 3.0 6.0 0.00 0.00 0.00 63 1017.1
20260831095804 76 190 3.0 7.0 0.00 0.00 0.00 64 1017.2
20260831095306 76 191 2.0 7.0 0.00 0.00 0.00 64 1017.2
20260831094804 76 198 2.0 5.0 0.00 0.00 0.00 66 1017.2
20260831094304 75 189 2.0 5.0 0.00 0.00 0.00 66 1017.4
20260831093804 75 192 2.0 5.0 0.00 0.00 0.00 67 1017.4
20260831093304 75 208 2.0 5.0 0.00 0.00 0.00 67 1017.4
20260831092805 75 181 2.0 5.0 0.00 0.00 0.00 68 1017.4
20260831091804 74 179 2.0 5.0 0.00 0.00 0.00 68 1017.4
20260831091304 74 274 2.0 5.0 0.00 0.00 0.00 69 1017.6
20260831090804 73 204 2.0 5.0 0.00 0.00 0.00 69 1017.6
20260831090304 73 337 2.0 2.0 0.00 0.00 0.00 70 1017.6
20260831085803 72 338 2.0 3.0 0.00 0.00 0.00 71 1017.6
20260831085306 72 337 2.0 5.0 0.00 0.00 0.00 72 1017.6
20260831084805 71 352 2.0 5.0 0.00 0.00 0.00 74 1017.6
20260831083804 70 188 2.0 3.0 0.00 0.00 0.00 75 1017.6
20260831083304 69 188 2.0 3.0 0.00 0.00 0.00 75 1017.6
20260831082804 69 196 2.0 2.0 0.00 0.00 0.00 76 1017.6
20260831082306 69 195 2.0 3.0 0.00 0.00 0.00 77 1017.6
20260831081303 68 195 2.0 3.0 0.00 0.00 0.00 77 1017.6
20260831080804 68 326 2.0 5.0 0.00 0.00 0.00 77 1017.6
20260831080305 67 2 2.0 5.0 0.00 0.00 0.00 79 1017.6
20260831075804 67 7 2.0 5.0 0.00 0.00 0.00 79 1017.6
20260831075306 67 5 2.0 3.0 0.00 0.00 0.00 81 1017.6
20260831074803 66 6 2.0 5.0 0.00 0.00 0.00 82 1017.6
20260831074303 66 6 1.0 5.0 0.00 0.00 0.00 82 1017.6
20260831073803 65 8 1.0 5.0 0.00 0.00 0.00 84 1017.6
20260831073303 65 41 1.0 3.0 0.00 0.00 0.00 86 1017.6
20260831072804 65 13 1.0 3.0 0.00 0.00 0.00 86 1017.7
20260831072306 64 14 0.0 3.0 0.00 0.00 0.00 86 1017.7
20260831071804 64 244 1.0 3.0 0.00 0.00 0.00 87 1017.7
20260831071305 64 243 1.0 3.0 0.00 0.00 0.00 87 1017.6
20260831070804 63 268 2.0 3.0 0.00 0.00 0.00 88 1017.6
20260831070303 63 282 2.0 5.0 0.00 0.00 0.00 89 1017.6
20260831065804 63 323 2.0 5.0 0.00 0.00 0.00 90 1017.7
20260831065306 62 7 2.0 5.0 0.00 0.00 0.00 90 1017.7
20260831064804 62 14 1.0 5.0 0.00 0.00 0.00 91 1017.7
20260831064304 62 4 0.0 3.0 0.00 0.00 0.00 91 1017.7
20260831063803 62 286 0.0 3.0 0.00 0.00 0.00 91 1017.7
20260831063303 62 286 0.0 3.0 0.00 0.00 0.00 91 1017.7
20260831062804 62 291 0.0 2.0 0.00 0.00 0.00 91 1017.7
20260831062306 62 291 0.0 2.0 0.00 0.00 0.00 91 1017.7
20260831061804 62 292 0.0 2.0 0.00 0.00 0.00 91 1017.7
20260831061304 62 292 0.0 3.0 0.00 0.00 0.00 91 1017.7
20260831060304 62 292 2.0 3.0 0.00 0.00 0.00 91 1017.7
20260831055306 62 315 1.0 3.0 0.00 0.00 0.00 91 1017.6
20260831054804 62 343 1.0 2.0 0.00 0.00 0.00 91 1017.6
20260831053805 62 346 1.0 2.0 0.00 0.00 0.00 91 1017.6
20260831053304 62 348 1.0 2.0 0.00 0.00 0.00 91 1017.6
20260831052804 62 348 1.0 5.0 0.00 0.00 0.00 91 1017.6
20260831052306 62 348 0.0 5.0 0.00 0.00 0.00 90 1017.6
20260831051804 62 275 0.0 5.0 0.00 0.00 0.00 90 1017.6
20260831051304 62 265 0.0 2.0 0.00 0.00 0.00 90 1017.4
20260831050805 62 265 1.0 2.0 0.00 0.00 0.00 90 1017.4
20260831050304 62 265 1.0 2.0 0.00 0.00 0.00 90 1017.4
20260831044804 62 321 2.0 3.0 0.00 0.00 0.00 90 1017.4
20260831044304 62 320 1.0 5.0 0.00 0.00 0.00 90 1017.2
20260831043804 63 296 2.0 5.0 0.00 0.00 0.00 89 1017.2
20260831043304 63 341 2.0 3.0 0.00 0.00 0.00 89 1017.2
20260831042804 63 342 2.0 3.0 0.00 0.00 0.00 89 1017.1
20260831042306 63 272 1.0 5.0 0.00 0.00 0.00 89 1017.1
20260831041805 63 300 1.0 5.0 0.00 0.00 0.00 89 1017.1
20260831041304 63 305 0.0 5.0 0.00 0.00 0.00 88 1017.3
20260831040804 63 305 1.0 3.0 0.00 0.00 0.00 88 1017.3
20260831040304 63 305 1.0 3.0 0.00 0.00 0.00 88 1017.3
20260831035805 63 305 2.0 3.0 0.00 0.00 0.00 88 1017.2
20260831035307 63 289 2.0 2.0 0.00 0.00 0.00 87 1017.2
20260831034304 63 312 2.0 5.0 0.00 0.00 0.00 87 1017.4
20260831033804 63 358 2.0 5.0 0.00 0.00 0.00 87 1017.4
20260831033304 63 357 1.0 5.0 0.00 0.00 0.00 87 1017.4
20260831032805 63 323 1.0 3.0 0.00 0.00 0.00 87 1017.5
20260831032306 63 286 0.0 3.0 0.00 0.00 0.00 87 1017.5
20260831031804 64 293 1.0 3.0 0.00 0.00 0.00 87 1017.5
20260831031304 64 260 1.0 1.0 0.00 0.00 0.00 87 1017.5
20260831030805 64 260 1.0 3.0 0.00 0.00 0.00 86 1017.5
20260831025306 64 1 1.0 2.0 0.00 0.00 0.00 86 1017.6
20260831024804 64 1 1.0 3.0 0.00 0.00 0.00 86 1017.6
20260831024304 64 1 0.0 3.0 0.00 0.00 0.00 86 1017.5
20260831023804 64 297 1.0 3.0 0.00 0.00 0.00 86 1017.5
20260831023304 64 343 1.0 2.0 0.00 0.00 0.00 86 1017.5
20260831022805 64 343 1.0 2.0 0.00 0.00 0.00 85 1017.5
20260831022306 64 345 0.0 2.0 0.00 0.00 0.00 86 1017.5
20260831020804 65 284 1.0 5.0 0.00 0.00 0.00 85 1017.6
20260831020305 65 284 1.0 5.0 0.00 0.00 0.00 85 1017.6
20260831015805 65 356 2.0 2.0 0.00 0.00 0.00 85 1017.6
20260831015306 65 356 2.0 3.0 0.00 0.00 0.00 85 1017.6
20260831014304 65 357 1.0 3.0 0.00 0.00 0.00 84 1017.6
20260831013804 65 311 1.0 3.0 0.00 0.00 0.00 84 1017.6
20260831013304 65 327 0.0 3.0 0.00 0.00 0.00 84 1017.6
20260831012306 65 319 1.0 2.0 0.00 0.00 0.00 83 1017.6
20260831011805 65 319 1.0 2.0 0.00 0.00 0.00 83 1017.6
20260831011304 66 319 1.0 3.0 0.00 0.00 0.00 83 1017.6
20260831010805 66 295 1.0 3.0 0.00 0.00 0.00 82 1017.6
20260831010304 66 295 1.0 3.0 0.00 0.00 0.00 82 1017.6
20260831005805 66 295 1.0 3.0 0.00 0.00 0.00 82 1017.6
20260831005306 66 295 0.0 3.0 0.00 0.00 0.00 81 1017.6
20260831004804 66 324 0.0 2.0 0.00 0.00 0.00 81 1017.6
20260831003805 67 324 1.0 3.0 0.00 0.00 0.00 80 1017.7
20260831002805 67 324 1.0 3.0 0.00 0.00 0.00 80 1017.7
20260831002306 67 317 1.0 2.0 0.00 0.00 0.00 79 1017.7
20260831001805 67 316 1.0 3.0 0.00 0.00 0.00 79 1017.7
20260831001305 67 316 0.0 3.0 0.00 0.00 0.00 79 1017.8
20260831000805 67 282 0.0 2.0 0.00 0.00 0.00 79 1017.8
20260831000304 67 282 0.0 2.0 0.00 0.00 0.00 79 1017.8
20260830235805 67 282 1.0 2.0 0.00 0.00 0.00 78 1017.8
20260830235306 67 282 1.0 2.0 0.00 0.00 0.00 78 1017.8
20260830234804 67 282 1.0 3.0 0.00 0.00 0.00 78 1017.8
20260830234304 68 295 0.0 3.0 0.00 0.00 0.00 78 1017.7
20260830233805 68 295 1.0 3.0 0.00 0.00 0.00 77 1017.7
20260830233304 68 338 1.0 2.0 0.00 0.00 0.00 77 1017.7
20260830231305 68 346 0.0 2.0 0.00 0.00 0.00 77 1017.8
20260830230804 68 346 1.0 2.0 0.00 0.00 0.00 77 1017.8
20260830230304 68 346 2.0 3.0 0.00 0.00 0.00 77 1017.8
20260830225802 68 346 1.0 5.0 0.00 0.00 0.00 77 1017.7